This demonstration page uses our WeatherBlox Daily Observations layout. Learn more.

Left ArrowRight Arrow

40.92501, -98.34201

Hourly Observations for June 7, 2015

Temp ( °F °C ) Dew Point ( °F °C ) Humidity (%) Winds ( mph kmh ) Pressure ( in mb ) Visibility ( mi km ) Precip ( " mm )
12:53 am 00:53 Clear 73 22.8 66 18.9 79 79 WSW 9 15 29.76 1008 10 16 0.00 0.00
1:53 am 01:53 Partly Cloudy 73 22.8 66 18.9 79 79 W 9 15 29.75 1008 10 16 0.00 0.00
2:53 am 02:53 Clear 71 21.7 67 19.4 87 87 WNW 13 20 29.77 1008 10 16 0.00 0.00
3:53 am 03:53 Clear 70 21.1 61 16.1 73 73 NW 16 26 29.76 1008 10 16 0.00 0.00
4:53 am 04:53 Clear 67 19.4 62 16.7 84 84 NNW 10 17 29.76 1008 10 16 0.00 0.00
5:53 am 05:53 Clear 66 18.9 61 16.1 84 84 NNW 9 15 29.78 1008 10 16 0.00 0.00
6:53 am 06:53 Sunny 67 19.4 62 16.7 84 84 WSW 3 6 29.80 1009 10 16 0.00 0.00
7:53 am 07:53 Sunny 69 20.6 62 16.7 78 78 N 7 11 29.81 1009 10 16 0.00 0.00
8:53 am 08:53 Sunny 71 21.7 62 16.7 73 73 N 9 15 29.81 1010 10 16 0.00 0.00
9:53 am 09:53 Partly Cloudy 74 23.3 62 16.7 67 67 N 9 15 29.83 1010 10 16 0.00 0.00
10:53 am 10:53 Sunny 76 24.4 62 16.7 62 62 N 13 20 29.84 1010 10 16 0.00 0.00
11:53 am 11:53 Mostly Sunny 75 23.9 61 16.1 62 62 N 18 30 29.86 1011 10 16 0.00 0.00
12:53 pm 12:53 Mostly Cloudy 77 25 58 14.4 52 52 N 20 31 29.86 1011 10 16 0.00 0.00
1:53 pm 13:53 Mostly Cloudy 78 25.6 53 11.7 42 42 NNE 18 30 29.85 1011 10 16 0.00 0.00
2:53 pm 14:53 Mostly Cloudy 77 25 55 12.8 47 47 NNE 15 24 29.86 1011 10 16 0.00 0.00
3:53 pm 15:53 Mostly Sunny 78 25.6 54 12.2 43 43 NNE 12 19 29.86 1011 10 16 0.00 0.00
4:53 pm 16:53 Sunny 79 26.1 50 10 36 36 N 7 11 29.86 1011 10 16 0.00 0.00
5:53 pm 17:53 Sunny 79 26.1 52 11.1 39 39 NNE 3 6 29.86 1011 10 16 0.00 0.00
6:53 pm 18:53 Sunny 79 26.1 53 11.7 41 41 NNW 8 13 29.86 1011 10 16 0.00 0.00
7:53 pm 19:53 Sunny 77 25 56 13.3 48 48 NNW 9 15 29.86 1011 10 16 0.00 0.00
8:53 pm 20:53 Sunny 72 22.2 57 13.9 59 59 NNW 5 7 29.86 1011 10 16 0.00 0.00
9:53 pm 21:53 Clear 68 20 58 14.4 70 70 NW 5 7 29.89 1012 10 16 0.00 0.00
10:53 pm 22:53 Clear 69 20.6 58 14.4 68 68 Calm 29.91 1013 10 16 0.00 0.00
11:53 pm 23:53 Clear 65 18.3 59 15 81 81 WSW 3 6 29.92 1013 10 16 0.00 0.00

Powered by AerisWeather